map of LYKV home
LYKV - Airport
Location
City:  Kraljevo, Serbia
Name:Ladevci
Old (Alt.):Obrva
ICAO:LYKV

Details
Type:Airport (Aerodrome, Airfield)
Latitude:4349'06"N (43.818333)
Longitude:2035'14"E (20.587222)
Elevation:686 ft (209 m)
Variation:4.65E (WMM2015 magnetic declination)
0.11 annual change
Runways:1
Longest:7218 ft (2200 m), paved

Time
Time Zone:UTC+1 (DST+2)
Local Time:

Weather
METAR:LYKV 210530Z 00000KT CAVOK 07/06 Q1023 NOSIG
TAF:LYKV 210500Z 2106/2206 VRB02KT CAVOK TX24/2114Z TN05/2204Z

Related Locations
Nearby:
Farthest:CHT: 11590 mi / 18652 km
Waitangi [Tuuta], CIT, NZ

Find:

   beyond  
but within

Other Information
Maps:
NOTAMs:
Links:
Sources:

  
flag of Serbia   

Sectional Chart

Flight Planning
at skyvector.com

Satellite Image

Google Maps Satellite view

 

Copyright © 2004-2018 Karl L. Swartz. All rights reserved.
The Great Circle Mapper name and logo are trademarks of the Great Circle Mapper.
All other trademarks mentioned herein belong to their respective owners.
Please see credits for attibutions and further copyright information.

  Follow gcmap on Facebook Follow gcmap on Twitter Follow gcmap on Google+ GCmap on LinkedIn

hCard Microformat

Geo Microformat